CXPRP CYXU-ZZZZ

Flight info

Callsign CXPRP
Flight time N/A
Altitude 3500
Route VFR DP E
Aircraft DA42

Departure

Time 2026-04-30 22:26
Airport London International Airport (CYXU)

Arrival

Time N/A
Airport ZZZZ
Time Latitude Longitude Altitude Speed Heading
2026-04-30 22:17 43.03095 -81.15536 901 ft 0 kts 50°
2026-04-30 22:20 43.03105 -81.15513 901 ft 4 kts 84°
2026-04-30 22:20 43.03081 -81.15458 901 ft 8 kts 106°
2026-04-30 22:21 43.03125 -81.15396 901 ft 8 kts 46°
2026-04-30 22:21 43.03177 -81.15328 902 ft 9 kts 46°
2026-04-30 22:21 43.03228 -81.15239 902 ft 9 kts 59°
2026-04-30 22:21 43.03264 -81.15154 902 ft 10 kts 146°
2026-04-30 22:22 43.03183 -81.15070 900 ft 14 kts 138°
2026-04-30 22:22 43.03091 -81.14947 899 ft 17 kts 141°
2026-04-30 22:22 43.02980 -81.14816 899 ft 18 kts 140°
2026-04-30 22:22 43.02864 -81.14681 899 ft 19 kts 139°
2026-04-30 22:23 43.02741 -81.14532 899 ft 20 kts 142°
2026-04-30 22:23 43.02618 -81.14387 901 ft 19 kts 139°
2026-04-30 22:23 43.02505 -81.14252 904 ft 18 kts 139°
2026-04-30 22:23 43.02392 -81.14117 907 ft 17 kts 140°
2026-04-30 22:24 43.02310 -81.13996 909 ft 13 kts 99°
2026-04-30 22:24 43.02352 -81.13911 911 ft 0 kts 45°
2026-04-30 22:25 43.02356 -81.13905 911 ft 2 kts 45°
2026-04-30 22:25 43.02376 -81.13878 911 ft 4 kts 45°
2026-04-30 22:25 43.02409 -81.13841 912 ft 6 kts
2026-04-30 22:25 43.02470 -81.13899 911 ft 25 kts 319°
2026-04-30 22:26 43.03365 -81.14908 1292 ft 79 kts 315°
2026-04-30 22:26 43.03827 -81.15532 1602 ft 81 kts 320°
2026-04-30 22:26 43.04421 -81.15231 1867 ft 107 kts 56°
2026-04-30 22:27 43.04534 -81.13984 2138 ft 114 kts 84°
2026-04-30 22:27 43.04525 -81.12663 2286 ft 130 kts 86°
2026-04-30 22:27 43.04552 -81.09617 2672 ft 142 kts 86°
2026-04-30 22:28 43.04611 -81.06413 3094 ft 143 kts 83°
2026-04-30 22:28 43.04645 -81.04789 3191 ft 150 kts 85°
2026-04-30 22:29 43.04734 -80.99744 3511 ft 160 kts 91°
2026-04-30 22:29 43.04554 -80.98034 3598 ft 161 kts 107°
2026-04-30 22:30 43.00809 -80.92884 3423 ft 168 kts 132°
2026-04-30 22:31 42.99994 -80.88095 3436 ft 158 kts 66°
2026-04-30 22:32 43.01960 -80.83746 3473 ft 150 kts 44°
2026-04-30 22:32 43.03648 -80.81432 3504 ft 148 kts 37°
2026-04-30 22:33 43.06148 -80.77879 3511 ft 150 kts 43°
2026-04-30 22:33 43.07890 -80.75671 3512 ft 147 kts 34°
2026-04-30 22:34 43.10511 -80.72150 3429 ft 152 kts 44°
2026-04-30 22:35 43.12110 -80.69673 3461 ft 149 kts 43°
2026-04-30 22:36 43.15934 -80.66082 3465 ft 147 kts 28°
2026-04-30 22:36 43.16907 -80.65222 3459 ft 148 kts 30°
2026-04-30 22:37 43.18411 -80.61184 3598 ft 155 kts 91°
2026-04-30 22:37 43.18368 -80.59537 3576 ft 159 kts 86°
2026-04-30 22:37 43.18494 -80.56210 3630 ft 154 kts 76°
2026-04-30 22:38 43.18790 -80.52965 3674 ft 156 kts 81°
2026-04-30 22:38 43.18913 -80.49501 3500 ft 166 kts 89°
2026-04-30 22:39 43.18755 -80.47728 3451 ft 166 kts 95°
2026-04-30 22:39 43.18879 -80.42387 3457 ft 156 kts 80°
2026-04-30 22:40 43.19257 -80.37273 3473 ft 161 kts 94°
2026-04-30 22:41 43.17886 -80.32308 3426 ft 167 kts 110°
2026-04-30 22:41 43.17141 -80.29027 3381 ft 162 kts 97°
2026-04-30 22:42 43.16972 -80.22491 3603 ft 152 kts 80°
2026-04-30 22:43 43.17329 -80.19122 3643 ft 156 kts 74°
2026-04-30 22:43 43.17967 -80.15745 3538 ft 162 kts 72°